User: anonymous   Login
Location: Vancouver
(49.2500°N, 123.1330°W)
Time: 16:57:43
(UTC-08:00)
Language:

S-56A Canister/Altair - Orbit

View from above orbital plane
View from above orbital plane
View from above satellite
View from above satellite

Ground track
Ground track

The orbit data is extracted from the following two-line orbital elements,

1    82U 61004B   17055.90911576 +.00000107 +00000-0 +13765-3 0  9990
2    82 038.8560 352.5805 1168056 011.8148 350.7623 12.25814986659484
Epoch (UTC): 24 February 2017 21:49:07
Eccentricity: 0.1168056
inclination: 38.8560°
perigee height: 639 km
apogee height: 2495 km
right ascension of ascending node: 352.5805°
argument of perigee: 11.8148°
revolutions per day: 12.25814986
mean anomaly at epoch: 350.7623°
orbit number at epoch: 65948

The dashed part of the orbit path shows where the satellite is in the earth's shadow,  

DLR